Retour au catalogue

STARLINK-36435

ActifCommunicationsSSO
NORAD 67568·PAYLOAD·🇺🇸 United States

Lancé Jan 25, 2026 depuis Vandenberg Space Force Base

Loading…

Prochains Passages (prochaines 24 heures)

TLE

FraisSource: CelesTrak SupGP

Époque: Sep 14, 2026, 22:43 UTC

1 67568C 26016H   26257.94701389  .00009104  00000+0  28266-3 0  2577
2 67568  97.2840 316.7393 0001002 102.0709 220.7655 15.33428783    10

Suivez STARLINK-36435 en temps réel avec AllMySat

Download on the App Store